Location: Bucharest
(44.4268°N, 26.1025°E)
Time: 23:58:07
(UTC+03:00)

O/OREOS (USA 219) - Pass Details

Date: 03 July 2022
Orbit: 621 x 646 km, 72.0° (Epoch: 22 May)

Event Time Altitude Azimuth Distance (km) Brightness Sun altitude
Rises 02:52:10 0° 316° (NW) 2,964 ? -19.4°
Reaches altitude 10° 02:55:45 10° 287° (WNW) 2,049 ? -19.1°
Enters shadow 02:57:05 12° 270° (W) 1,904 ? -19.0°
